IRIDIUM 153 (43078 NORAD) Tracking and Keplerian Element Data

This shows tracking and keplerian element data for the satellite.

Feedback or suggestion? Click here.




ElementValue
Catalog43078
NameIRIDIUM 153
Epoch Orbit19809
Epoch Day269.61623888
Epoch Year2021
RAAN291.1357
Inclination86.3922
Eccentricity0.00016
Argument of Perigee79.1958
Mean Anonmoly280.9417
Mean Motion14.34218276
Decay Rate1.06E-06
L11 43078U 17083J 21269.61623888 .00000106 00000-0 30965-4 0 9997
L22 43078 86.3922 291.1357 0001600 79.1958 280.9417 14.34218276198094

Live tracking and technical data element details for IRIDIUM 153 (NORAD 43078). IRIDIUM 153 can be tracked NOW for your location showing map with azimuth and elevation plus other details from your city location.

Track the satellite on the map from your city or location and see movement details for azimuth, elevation, latitude, longitude, range, height, and movement on the map or in text.







IsCatalogInMostPopularTable: catalog: 43078, numindb: 611
Update: records affected: 1



GetName: 43078 IRIDIUM 153

Hit Count: updated at: Mon, 27 Sep 2021 22:30:00 GMT